CST,Max TemperatureF,Mean TemperatureF,Min TemperatureF,Max Dew PointF,MeanDew PointF,Min DewpointF,Max Humidity, Mean Humidity, Min Humidity, Max Sea Level PressureIn, Mean Sea Level PressureIn, Min Sea Level PressureIn, Max VisibilityMiles, Mean VisibilityMiles, Min VisibilityMiles, Max Wind SpeedMPH, Mean Wind SpeedMPH, Max Gust SpeedMPH,PrecipitationIn, CloudCover, Events, WindDirDegrees
2013-11-1,49,43,37,42,39,36,97,80,73,29.77,29.61,29.46,10,10,5,13,9,20,0.00,7,Rain,256
2013-11-2,51,40,30,37,34,30,98,79,51,30.16,29.99,29.77,10,8,0,13,4,17,0.00,3,Fog,312
2013-11-3,54,40,25,37,32,25,98,75,44,30.28,30.21,30.15,10,9,4,17,4,21,0.00,0,,134
2013-11-4,57,50,43,44,39,34,76,66,52,30.17,30.11,30.03,10,10,10,18,13,25,0.00,4,,163
2013-11-5,54,51,48,53,48,44,94,87,75,30.22,30.09,29.87,10,8,2,23,6,29,0.24,8,Rain,148
2013-11-6,56,46,35,54,38,25,95,77,49,30.22,29.98,29.73,10,9,2,17,12,26,0.22,5,Rain,278
2013-11-7,42,34,26,31,29,24,94,75,64,30.27,30.24,30.23,10,10,10,13,6,18,0.00,2,,268
2013-11-8,50,38,25,34,29,23,95,69,43,30.31,30.14,29.83,10,10,7,23,7,29,0.00,1,,163
2013-11-9,58,49,40,38,35,28,73,57,45,30.18,29.96,29.82,10,10,10,22,15,29,0.00,1,,255
2013-11-10,49,40,32,33,30,28,85,65,46,30.38,30.29,30.19,10,10,10,12,7,18,0.00,3,,250
2013-11-11,46,34,23,35,28,14,95,72,56,30.59,30.28,30.09,10,9,1,18,8,24,0.04,6,Rain-Snow,328
2013-11-12,31,24,18,17,14,12,75,65,46,30.76,30.68,30.60,10,10,10,12,8,16,0.00,0,,296
2013-11-13,44,31,18,20,16,12,81,56,27,30.61,30.37,30.13,10,10,10,17,8,24,0.00,0,,194
2013-11-14,50,39,28,30,25,20,76,58,38,30.12,29.99,29.91,10,10,10,15,8,20,0.00,1,,185
2013-11-15,55,44,32,35,30,26,87,62,38,29.96,29.91,29.87,10,10,10,13,8,,0.00,1,,178
2013-11-16,58,46,35,55,48,32,95,88,84,29.86,29.65,29.48,10,8,2,28,12,34,0.04,6,Rain-Thunderstorm,161
2013-11-17,69,56,42,60,48,34,95,82,68,29.82,29.47,29.18,10,9,4,25,13,39,0.22,6,Rain-Thunderstorm,240
2013-11-18,43,36,27,34,28,23,84,67,48,30.28,30.07,29.83,10,10,10,22,14,31,0.00,1,,287
2013-11-19,42,32,21,30,26,20,96,78,53,30.35,30.29,30.21,10,10,5,13,4,,0.00,0,,123
2013-11-20,40,36,32,37,32,28,95,85,69,30.22,30.13,30.04,10,8,2,15,10,21,0.27,7,Rain,135
2013-11-21,44,41,38,40,38,36,96,88,80,30.26,30.15,30.07,7,5,2,9,4,,0.00,8,Rain,341
2013-11-22,40,32,23,36,26,17,92,76,55,30.51,30.44,30.27,10,9,5,14,9,22,0.06,4,Rain-Snow,318
2013-11-23,24,18,12,17,8,2,80,60,39,30.76,30.64,30.48,10,10,10,18,10,26,0.00,1,,322
2013-11-24,29,18,8,11,7,0,87,59,29,30.73,30.58,30.34,10,10,10,15,6,22,0.00,0,,210
2013-11-25,33,26,19,28,22,12,87,74,59,30.33,30.15,30.07,10,8,0,16,10,24,0.00,7,Snow,219
2013-11-26,32,24,16,28,18,4,85,66,45,30.26,30.13,30.06,10,10,10,18,8,26,0.00,5,,302
2013-11-27,27,20,13,16,8,3,74,59,42,30.32,30.26,30.21,10,10,10,13,9,21,0.00,1,,304
2013-11-28,33,24,15,18,14,12,92,66,47,30.51,30.28,30.13,10,10,7,12,6,,0.00,2,,214
2013-11-29,35,22,10,22,16,8,93,72,50,30.61,30.50,30.34,10,10,7,13,4,16,0.00,0,,132
2013-11-30,49,37,25,31,26,21,96,76,48,30.34,30.14,30.04,10,9,5,10,5,,0.00,0,,176